• Em Portugal
  • Lista de países
  • Para 7 dias
  • Temperatura da água
  • Mapas de satélite
  • Mapa do tempo
  • Widgets de tempo
  • user-avatar
    Iniciar Sessão

    Previsão horária em Pert

    Hoje, 24 Setembro, Segunda-feira

    Tempo Temperatura Precipitação Vento Pressão Humidade
    00:00 +16°C° 0 mm 1 m/s 763 mmHg 70%
    01:00 +16°C° 0 mm 1 m/s 763 mmHg 72%
    02:00 +15°C° 0 mm 1 m/s 763 mmHg 75%
    03:00 +15°C° 0 mm 1 m/s 763 mmHg 78%
    04:00 +14°C° 0 mm 1 m/s 763 mmHg 82%
    05:00 +14°C° 0 mm 1 m/s 763 mmHg 85%
    06:00 +15°C° 0 mm 1 m/s 763 mmHg 82%
    07:00 +18°C° 0 mm 1 m/s 763 mmHg 79%
    08:00 +19°C° 0 mm 1 m/s 763 mmHg 76%
    09:00 +20°C° 0 mm 2 m/s 763 mmHg 70%
    10:00 +21°C° 0 mm 2 m/s 763 mmHg 63%
    11:00 +24°C° 0 mm 3 m/s 763 mmHg 56%
    12:00 +24°C° 0 mm 3 m/s 763 mmHg 55%
    13:00 +23°C° 0 mm 4 m/s 763 mmHg 53%
    14:00 +25°C° 0 mm 4 m/s 762 mmHg 52%
    15:00 +23°C° 0 mm 4 m/s 762 mmHg 55%
    16:00 +22°C° 0 mm 4 m/s 762 mmHg 58%
    17:00 +21°C° 0 mm 4 m/s 762 mmHg 61%
    18:00 +19°C° 0 mm 3 m/s 763 mmHg 68%
    19:00 +18°C° 0 mm 3 m/s 763 mmHg 76%
    20:00 +16°C° 0 mm 3 m/s 764 mmHg 84%
    21:00 +15°C° 0 mm 2 m/s 764 mmHg 85%
    22:00 +15°C° 0 mm 2 m/s 764 mmHg 86%
    23:00 +14°C° 0 mm 2 m/s 764 mmHg 87%

    Amanhã, 25 Setembro, Terça-feira

    Tempo Temperatura Precipitação Vento Pressão Humidade
    00:00 +14°C° 0 mm 2 m/s 764 mmHg 87%
    01:00 +14°C° 0 mm 2 m/s 764 mmHg 88%
    02:00 +14°C° 0 mm 2 m/s 764 mmHg 88%
    03:00 +13°C° 0 mm 2 m/s 764 mmHg 88%
    04:00 +13°C° 0 mm 1 m/s 764 mmHg 88%
    05:00 +13°C° 0 mm 1 m/s 764 mmHg 88%
    06:00 +15°C° 0 mm 2 m/s 764 mmHg 83%
    07:00 +16°C° 0 mm 2 m/s 764 mmHg 79%
    08:00 +18°C° 0 mm 3 m/s 765 mmHg 75%
    09:00 +19°C° 0.1 mm 3 m/s 764 mmHg 71%
    10:00 +20°C° 0.1 mm 4 m/s 764 mmHg 67%
    11:00 +21°C° 0.1 mm 4 m/s 764 mmHg 63%
    12:00 +21°C° 0 mm 4 m/s 764 mmHg 59%
    13:00 +22°C° 0 mm 4 m/s 764 mmHg 55%
    14:00 +22°C° 0 mm 4 m/s 763 mmHg 51%
    15:00 +21°C° 0 mm 4 m/s 763 mmHg 54%
    16:00 +20°C° 0 mm 4 m/s 763 mmHg 57%
    17:00 +19°C° 0 mm 4 m/s 763 mmHg 59%
    18:00 +18°C° 0 mm 4 m/s 764 mmHg 67%
    19:00 +15°C° 0 mm 4 m/s 764 mmHg 75%
    20:00 +13°C° 0 mm 3 m/s 765 mmHg 83%
    21:00 +13°C° 0 mm 3 m/s 765 mmHg 84%
    22:00 +12°C° 0 mm 3 m/s 765 mmHg 86%
    23:00 +12°C° 0 mm 3 m/s 766 mmHg 88%

    Depois de amanhã, 26 Setembro, Quarta-feira

    Tempo Temperatura Precipitação Vento Pressão Humidade
    00:00 +12°C° 0 mm 3 m/s 765 mmHg 89%
    01:00 +11°C° 0 mm 3 m/s 765 mmHg 89%
    02:00 +11°C° 0 mm 3 m/s 765 mmHg 90%
    03:00 +11°C° 0 mm 3 m/s 765 mmHg 90%
    04:00 +10°C° 0 mm 3 m/s 765 mmHg 90%
    05:00 +10°C° 0 mm 3 m/s 765 mmHg 91%
    06:00 +11°C° 0 mm 3 m/s 765 mmHg 86%
    07:00 +12°C° 0 mm 3 m/s 765 mmHg 81%
    08:00 +14°C° 0 mm 3 m/s 765 mmHg 76%
    09:00 +16°C° 0 mm 3 m/s 765 mmHg 67%
    10:00 +18°C° 0 mm 3 m/s 765 mmHg 58%
    11:00 +20°C° 0 mm 3 m/s 765 mmHg 49%
    12:00 +21°C° 0 mm 3 m/s 765 mmHg 49%
    13:00 +21°C° 0 mm 4 m/s 764 mmHg 48%
    14:00 +22°C° 0 mm 4 m/s 764 mmHg 48%
    15:00 +21°C° 0 mm 5 m/s 764 mmHg 52%
    16:00 +20°C° 0 mm 5 m/s 764 mmHg 57%
    17:00 +19°C° 0 mm 6 m/s 764 mmHg 61%
    18:00 +17°C° 0 mm 5 m/s 765 mmHg 66%
    19:00 +15°C° 0 mm 5 m/s 765 mmHg 71%
    20:00 +14°C° 0 mm 5 m/s 766 mmHg 76%
    21:00 +13°C° 0 mm 5 m/s 766 mmHg 77%
    22:00 +12°C° 0 mm 5 m/s 766 mmHg 79%
    23:00 +12°C° 0 mm 5 m/s 766 mmHg 80%

    27 Setembro, Quinta-feira

    Tempo Temperatura Precipitação Vento Pressão Humidade
    00:00 +10°C° 0 mm 5 m/s 766 mmHg 81%
    01:00 +10°C° 0 mm 5 m/s 766 mmHg 82%
    02:00 +9°C° 0 mm 5 m/s 765 mmHg 82%
    03:00 +9°C° 0 mm 5 m/s 765 mmHg 84%
    04:00 +10°C° 0 mm 4 m/s 766 mmHg 85%
    05:00 +8°C° 0 mm 4 m/s 766 mmHg 86%
    06:00 +9°C° 0 mm 5 m/s 766 mmHg 81%
    07:00 +10°C° 0 mm 5 m/s 766 mmHg 77%
    08:00 +12°C° 0 mm 5 m/s 767 mmHg 72%
    09:00 +14°C° 0 mm 5 m/s 767 mmHg 65%
    10:00 +17°C° 0 mm 4 m/s 766 mmHg 58%
    11:00 +19°C° 0 mm 4 m/s 766 mmHg 50%
    12:00 +20°C° 0 mm 4 m/s 765 mmHg 47%
    13:00 +21°C° 0 mm 4 m/s 765 mmHg 44%
    14:00 +22°C° 0 mm 4 m/s 764 mmHg 41%
    15:00 +22°C° 0 mm 4 m/s 764 mmHg 44%
    16:00 +21°C° 0 mm 5 m/s 764 mmHg 46%
    17:00 +21°C° 0 mm 5 m/s 764 mmHg 49%
    18:00 +20°C° 0 mm 5 m/s 764 mmHg 50%
    19:00 +17°C° 0 mm 6 m/s 765 mmHg 51%
    20:00 +15°C° 0 mm 6 m/s 765 mmHg 53%
    21:00 +15°C° 0 mm 6 m/s 765 mmHg 54%
    22:00 +14°C° 0 mm 7 m/s 765 mmHg 55%
    23:00 +12°C° 0 mm 7 m/s 765 mmHg 56%

    28 Setembro, Sexta-feira

    Tempo Temperatura Precipitação Vento Pressão Humidade
    00:00 +11°C° 0 mm 7 m/s 765 mmHg 59%
    01:00 +11°C° 0 mm 8 m/s 765 mmHg 63%
    02:00 +10°C° 0 mm 8 m/s 765 mmHg 66%
    03:00 +9°C° 0 mm 8 m/s 765 mmHg 66%
    04:00 +9°C° 0 mm 8 m/s 765 mmHg 67%
    05:00 +9°C° 0 mm 8 m/s 766 mmHg 67%
    06:00 +10°C° 0 mm 8 m/s 766 mmHg 65%
    07:00 +10°C° 0 mm 8 m/s 766 mmHg 63%
    08:00 +11°C° 0 mm 8 m/s 767 mmHg 61%
    09:00 +13°C° 0 mm 8 m/s 766 mmHg 56%
    10:00 +16°C° 0 mm 8 m/s 766 mmHg 50%
    11:00 +18°C° 0 mm 7 m/s 765 mmHg 45%
    12:00 +20°C° 0 mm 7 m/s 764 mmHg 43%
    13:00 +21°C° 0 mm 7 m/s 763 mmHg 41%
    14:00 +23°C° 0 mm 6 m/s 762 mmHg 38%
    15:00 +22°C° 0 mm 6 m/s 762 mmHg 40%
    16:00 +22°C° 0 mm 6 m/s 762 mmHg 42%
    17:00 +21°C° 0 mm 5 m/s 762 mmHg 43%
    18:00 +20°C° 0 mm 6 m/s 763 mmHg 43%
    19:00 +19°C° 0 mm 6 m/s 763 mmHg 43%
    20:00 +17°C° 0 mm 7 m/s 763 mmHg 43%
    21:00 +16°C° 0 mm 7 m/s 763 mmHg 44%
    22:00 +16°C° 0 mm 8 m/s 763 mmHg 45%
    23:00 +15°C° 0 mm 8 m/s 763 mmHg 46%

    29 Setembro, Sábado

    Tempo Temperatura Precipitação Vento Pressão Humidade
    00:00 +13°C° 0 mm 8 m/s 762 mmHg 49%
    01:00 +12°C° 0 mm 8 m/s 762 mmHg 52%
    02:00 +12°C° 0 mm 8 m/s 762 mmHg 55%
    03:00 +12°C° 0 mm 8 m/s 762 mmHg 56%
    04:00 +12°C° 0 mm 8 m/s 761 mmHg 56%
    05:00 +12°C° 0 mm 8 m/s 761 mmHg 57%
    06:00 +12°C° 0.1 mm 8 m/s 761 mmHg 59%
    07:00 +12°C° 0.1 mm 8 m/s 761 mmHg 62%
    08:00 +12°C° 0.1 mm 8 m/s 761 mmHg 64%
    09:00 +13°C° 0.4 mm 8 m/s 761 mmHg 66%
    10:00 +13°C° 0.4 mm 9 m/s 760 mmHg 68%
    11:00 +15°C° 0.4 mm 9 m/s 759 mmHg 70%
    12:00 +15°C° 0.2 mm 8 m/s 758 mmHg 68%
    13:00 +16°C° 0.2 mm 7 m/s 757 mmHg 66%
    14:00 +17°C° 0.2 mm 7 m/s 756 mmHg 64%
    15:00 +16°C° 0.5 mm 7 m/s 756 mmHg 67%
    16:00 +16°C° 0.5 mm 7 m/s 755 mmHg 70%
    17:00 +16°C° 0.5 mm 8 m/s 754 mmHg 73%
    18:00 +15°C° 1.5 mm 8 m/s 754 mmHg 77%
    19:00 +13°C° 1.5 mm 9 m/s 754 mmHg 80%
    20:00 +11°C° 1.5 mm 9 m/s 754 mmHg 84%
    21:00 +11°C° 0.6 mm 8 m/s 753 mmHg 84%
    22:00 +11°C° 0.6 mm 7 m/s 753 mmHg 84%
    23:00 +11°C° 0.6 mm 6 m/s 753 mmHg 84%
    Mostrar mais

    3.3.7123123